User: anonymous   Login
Location: Newark
(0.5300°S, 127.4800°E)
Time: 07:19:45
(UTC+00:00)
Language:

Courier 1B Rocket - Orbit

View from above orbital plane
View from above orbital plane
View from above satellite
View from above satellite

Ground track
Ground track

The orbit data is extracted from the following two-line orbital elements,

1    59U 60013B   19259.25540558 +.00000110 +00000-0 +28176-4 0  9994
2    59 028.2471 191.8277 0189310 136.3731 225.1949 13.52971161909300
Epoch (UTC): 16 September 2019 06:07:47
Eccentricity: 0.0189310
inclination: 28.2471°
perigee height: 920 km
apogee height: 1202 km
right ascension of ascending node: 191.8277°
argument of perigee: 136.3731°
revolutions per day: 13.52971161
mean anomaly at epoch: 225.1949°
orbit number at epoch: 90930

The dashed part of the orbit path shows where the satellite is in the earth's shadow,  

DLR